Regional Weather Roundup
Issued by NWS

Home | Current Version | Previous Version | Graphics & Text | Print | Product List | Glossary On
Versions: 1 2 3 4 5 6 7 8 9 10 11 12 13 14 15 16 17 18 19 20 21 22 23 24 25 26 27 28 29 30 31 32 33 34 35 36 37 38 39 40 41 42 43 44 45 46 47 48 49 50
457
ASUS43 KFSD 230502
RWRSD

WEATHER ROUNDUP FOR SOUTH DAKOTA
NATIONAL WEATHER SERVICE SIOUX FALLS SD
1200 AM CDT MON OCT 23 2017

NOTE: "FAIR" INDICATES FEW OR NO CLOUDS BELOW 12,000 FEET WITH NO
SIGNIFICANT WEATHER AND/OR OBSTRUCTIONS TO VISIBILITY.


SDZ001>005-009-010-012>017-230600-
NORTHWEST AND NORTH CENTRAL SOUTH DAKOTA

CITY           SKY/WX    TMP DP  RH WIND       PRES   REMARKS
BUFFALO          N/A     48  38  68 W21       29.88R
MOBRIDGE       CLEAR     52  46  80 W8        29.80R
$$

SDZ012>016-024>037-041>051-057-063-072>074-230600-
SOUTHWEST AND SOUTH CENTRAL SOUTH DAKOTA

CITY           SKY/WX    TMP DP  RH WIND       PRES   REMARKS
RAPID CTY ARPT CLOUDY    57  32  38 NW22G38   29.99R
PIERRE         MOCLDY    53  45  74 NW13      29.86R
CUSTER         PTCLDY    47  30  51 N12G22    30.04R
ELLSWORTH AFB  LGT RAIN  56  38  50 N23G37    29.99
PHILIP         CLOUDY    55  43  63 NW18      29.94R
PINE RIDGE     CLOUDY    57  33  40 N10       29.98R
SPEARFISH      MOCLDY    54  32  43 W20G29    30.02R
WINNER         FAIR      54  35  48 SW10      29.83S
$$

SDZ004>011-016>023-039-040-230600-
NORTHEAST SOUTH DAKOTA

CITY           SKY/WX    TMP DP  RH WIND       PRES   REMARKS
ABERDEEN       CLOUDY    59  40  49 W23G31    29.77S
WATERTOWN      CLOUDY    52  38  58 S7        29.79R
BROOKINGS      CLEAR     52  33  48 S12       29.81F
SISSETON         N/A     62  36  37 SW20G31   29.71F
$$

SDZ017-020-022-023-036>040-048>070-230600-
SOUTHEAST SOUTH DAKOTA

CITY           SKY/WX    TMP DP  RH WIND       PRES   REMARKS
SIOUX FALLS    CLEAR     55  33  43 SW10      29.83F
HURON          PTCLDY    55  36  48 W3        29.80R
CHAMBERLAIN    CLEAR     52  36  55 W6        29.81S
MITCHELL       CLEAR     54  35  48 S9        29.79F
YANKTON        PTCLDY    56  32  40 SW8       29.85F
$$

ABBREVIATIONS USED IN REMARKS
   TC - TEMPERATURE IN CELSIUS
  WCI - WIND CHILL INDEX
   HX - HEAT INDEX
  VSB - VISIBILITY





USA.gov is the U.S. government's official web portal to all federal, state and local government web resources and services.